Regional Weather Roundup
Issued by NWS Upton, NY

Current Version | Previous Version | Text Only | Print | Product List | Glossary On
Versions: 1 2 3 4 5 6 7 8 9 10 11 12 13 14 15 16 17 18 19 20 21 22 23 24 25 26 27 28 29 30 31 32 33 34 35 36 37 38 39 40 41 42 43 44 45 46 47 48 49 50
000
ASUS41 KOKX 270905
RWROKX

REGIONAL WEATHER ROUNDUP
NATIONAL WEATHER SERVICE NEW YORK NY
400 AM EST FRI FEB 27 2015

NOTE: "FAIR" INDICATES FEW OR NO CLOUDS BELOW 12,000 FEET WITH NO
SIGNIFICANT WEATHER AND/OR OBSTRUCTIONS TO VISIBILITY.

NYZ071-072-176-178-NJZ106-104-271000-
NEW YORK CITY METRO AREA


CITY           SKY/WX    TMP DP  RH WIND       PRES   REMARKS
CENTRAL PARK   MOCLDY    20   5  52 VRB5      30.25R WCI  13
LAGUARDIA APRT CLOUDY    21   8  57 NW7       30.24R WCI  12
KENNEDY INTL   MOCLDY    21   4  47 N10       30.25R WCI  10
NEWARK/LIBERTY MOCLDY    20  10  65 N10       30.25R WCI   9
BRNX BOT. GARD   N/A    N/A N/A N/A NW2       30.23S
TETERBORO      MOCLDY    18   6  59 N5        30.24R WCI  11
$$

NYZ177-179-078>081-271000-
LONG ISLAND NEW YORK

CITY           SKY/WX    TMP DP  RH WIND       PRES   REMARKS
FARMINGDALE    PTCLDY    20   5  52 N7        30.23R WCI  11
ISLIP          CLOUDY    20   7  57 N8        30.21R WCI  10
SHIRLEY        PTCLDY    15   6  67 NW5       30.23R WCI   8
WESTHAMPTON    CLEAR      6   1  80 NW5       30.23R WCI  -3
MONTAUK POINT    N/A     23   8  52 N6        30.22R WCI  16
$$

NYZ052-065-067-271000-
HUDSON VALLEY

CITY           SKY/WX    TMP DP  RH WIND       PRES   REMARKS
WHITE PLAINS   MOCLDY    15   1  53 N8        30.20R WCI   4
NEWBURGH       PTCLDY     5   0  78 CALM      30.22
MONTGOMERY     MOCLDY     1  -3  83 CALM      30.22R
POUGHKEEPSIE   PTCLDY     5  -1  76 CALM      30.24R
ALBANY         FLURRIES   8  -4  58 N3        30.28R
$$

NJZ001-105-106-008-010-013-015-019>022-104-271000-
NEW JERSEY

CITY           SKY/WX    TMP DP  RH WIND       PRES   REMARKS
NEWARK/LIBERTY MOCLDY    20  10  65 N10       30.25R WCI   9
TETERBORO      MOCLDY    18   6  59 N5        30.24R WCI  11
CALDWELL       PTCLDY    14   6  70 CALM      30.25R
MORRISTOWN     CLOUDY    14   9  79 CALM      30.24R
SOMERVILLE     CLOUDY    14   9  80 CALM      30.22R
SUSSEX         MOCLDY     4  -1  80 CALM      30.22R
ANDOVER          N/A      3   0  87 CALM      30.22R
TRENTON        CLOUDY    21  11  65 N6        30.22R WCI  13
MILLVILLE      CLOUDY    18  14  84 CALM      30.21R
ATLANTIC CITY  PTCLDY    10   7  87 CALM      30.21S
WRIGHTSTOWN    NOT AVBL
TOMS RIVER     CLEAR     12  10  92 CALM      30.23R
BELMAR         PTCLDY    18   9  68 CALM      30.21R
$$

PAZ047>061-062-071-271000-
EASTERN PENNSYLVANIA

CITY           SKY/WX    TMP DP  RH WIND       PRES   REMARKS
PHILADELPHIA   CLOUDY    26  15  63 N8        30.23R WCI  18
ALLENTOWN      CLOUDY    17   7  64 CALM      30.23R
SCRANTON       CLOUDY    11   2  67 N8        30.21R WCI  -1
$$

CTZ002-004>006-009-010-012-RIZ004-006-007-MAZ004-011-015-271000-
SOUTHERN NEW ENGLAND
 IN CT

CITY           SKY/WX    TMP DP  RH WIND       PRES   REMARKS
BRADLEY INTL   MOCLDY    15   1  53 NW10      30.21R WCI   2
HARTFORD       MOCLDY    16   1  51 N5        30.24R WCI   9
DANBURY        PTCLDY     7  -2  66 CALM      30.22R
WTRBRY/OXFORD  MOCLDY    12  -2  52 N7        30.19R WCI   2
BRIDGEPORT     CLOUDY    17   4  56 N7        30.24R WCI   8
MERIDEN        CLOUDY    15   1  53 NW7       30.23R WCI   5
NEW HAVEN      MOCLDY    16   3  56 NW3       30.22R
CHESTER        PTSUNNY   18   1  49 CALM      30.18R
GROTON         CLEAR      9   7  92 CALM      30.21R
WILLIMANTIC    CLEAR      4   0  83 NE3       30.21R

 IN RI

CITY           SKY/WX    TMP DP  RH WIND       PRES   REMARKS
PROVIDENCE     CLEAR     11   8  88 W3        30.21R
BLOCK ISLAND   CLEAR     19  10  68 NW5       30.18R WCI  13
WESTERLY       CLEAR      9   5  84 CALM      30.22R

 IN MA

CITY           SKY/WX    TMP DP  RH WIND       PRES   REMARKS
BOSTON         PTCLDY    17  -1  45 NW10      30.20R WCI   5
WORCESTER      CLOUDY    12  -3  51 NW5       30.12R WCI   4
WESTFIELD      CLOUDY    10  -1  61 CALM      30.21R
PROVINCETOWN   CLEAR     23   9  54 NW14      30.18R WCI  11
NANTUCKET      CLEAR     22  12  65 NW8       30.17R WCI  12
$$

ANZ330-335-338-340-345-350-353-355-271000-
COASTAL MARINE OBSERVATIONS


STATION/POSITION TIME  SKY/WX   TEMP    WIND        PRES    VSBY  WAVE
                                AIR SEA DIR/SP/G                  HT/PER
                 (UTC)          (F)     (DEG/KT/KT) (MB)    (MI)  (FT/S)
NY HARB ENTRANCE 0900            25 38   10/ 12/ 16 1023.3          3/12
4S FIRE IS       NOT AVBL
20S FIRE ISLAND  0800               36              1023.0          4/ 7
23SW MTP         0900                                 N/A           4/ 9
HUDSON CANYON    NOT AVBL
EXECUTION ROCKS  NOT AVBL
WESTERN LI SOUND NOT AVBL
CENTRAL LI SOUND NOT AVBL
EASTERN LI SOUND NOT AVBL
ROBBINS REEF     0900            21     350/  8/ 10 1022.8
$$


>>>>>>>>>>>>>>>>>>>>>>>>>>>> KEY <<<<<<<<<<<<<<<<<<<<<<<<<<<
>                                                          <
>     SKY/WX - SKY CONDITION/PRESENT WEATHER               <
>     TMP    - TEMPERATURE IN FAHRENHEIT                   <
>     DP     - DEWPOINT IN FAHRENHEIT                      <
>     RH     - RELATIVE HUMIDITY IN PERCENT                <
>     WIND   - DIRECTION AND SPEED IN MPH                  <
>     PRES   - MEAN SEA LEVEL PRESSURE IN INCHES OF HG     <
>     WCI    - WIND CHILL INDEX                            <
>     VSB    - VISIBILITY IN MILES                         <
>     HX     - HEAT INDEX                                  <
>     TC     - TEMPERATURE IN CELSIUS                      <
>     VRB    - VARIABLE WIND DIRECTION                     <
>                                                          <
>>>>>>>>>>>>>>>>>>>>>>>>>>>> KEY <<<<<<<<<<<<<<<<<<<<<<<<<<<




USA.gov is the U.S. government's official web portal to all federal, state and local government web resources and services.